DW7287 Weather Reports


Display with metric or nautical units.
time (UTC)temp
F
wind
direction
speed
MPH
gust
MPH
rain 1hr
in
rain 24hr
in
rain mn
in
humidity
%
barometer
mb
20260510174607 68 42 3.0 9.0 0.00 0.00 0.00 68 1015.3
20260510173100 68 360 2.0 8.0 0.00 0.00 0.00 71 1015.3
20260510171555 67 360 2.0 6.0 0.00 0.00 0.00 69 1015.2
20260510170108 68 17 2.0 6.0 0.00 0.00 0.00 68 1015.3
20260510164609 68 0 2.0 5.0 0.00 0.00 0.00 67 1015.3
20260510163059 67 0 1.0 5.0 0.00 0.00 0.00 70 1015.3
20260510161552 66 360 1.0 5.0 0.00 0.00 0.00 73 1015.2
20260510154603 67 360 2.0 8.0 0.00 0.00 0.00 67 1015.2
20260510153053 69 360 2.0 6.0 0.00 0.00 0.00 63 1015.0
20260510151554 69 0 0.0 5.0 0.00 0.00 0.00 63 1014.5
20260510150053 70 244 3.0 8.0 0.00 0.00 0.00 61 1014.8
20260510144607 70 309 2.0 8.0 0.00 0.00 0.00 64 1014.8
20260510143050 69 292 2.0 9.0 0.00 0.00 0.00 63 1014.8
20260510141551 69 306 2.0 8.0 0.00 0.00 0.00 63 1014.9
20260510140050 69 288 3.0 8.0 0.00 0.00 0.00 64 1014.9
20260510134555 67 36 1.0 5.0 0.00 0.00 0.00 66 1014.6
20260510133056 68 319 0.0 6.0 0.00 0.00 0.00 64 1014.4
20260510131552 68 290 0.0 5.0 0.00 0.00 0.00 66 1014.4
20260510130055 66 0 0.0 2.0 0.00 0.00 0.00 70 1014.6
20260510124558 64 82 1.0 5.0 0.00 0.00 0.00 71 1014.5
20260510123053 63 0 0.0 2.0 0.00 0.00 0.00 76 1014.5
20260510121551 60 20 0.0 3.0 0.00 0.00 0.00 80 1014.4
20260510120050 57 16 0.0 2.0 0.00 0.00 0.00 85 1014.3
20260510114553 54 19 0.0 4.0 0.00 0.00 0.00 92 1014.1
20260510113053 52 360 0.0 2.0 0.00 0.00 0.00 93 1013.9
20260510111554 50 0 0.0 0.0 0.00 0.00 0.00 93 1013.6
20260510110055 50 0 0.0 0.0 0.00 0.00 0.00 92 1013.4
20260510104600 50 0 0.0 0.0 0.00 0.00 0.00 91 1013.1
20260510103055 50 0 0.0 1.0 0.00 0.00 0.00 91 1013.0
20260510101553 50 0 0.0 1.0 0.00 0.00 0.00 90 1013.0
20260510100055 51 0 0.0 2.0 0.00 0.00 0.00 89 1012.7
20260510094605 51 360 0.0 1.0 0.00 0.00 0.00 88 1012.4
20260510093116 52 0 0.0 2.0 0.00 0.00 0.00 87 1012.3
20260510091554 53 0 0.0 1.0 0.00 0.00 0.00 85 1012.2
20260510090055 54 0 0.0 1.0 0.00 0.00 0.00 84 1012.1
20260510084554 55 0 0.0 1.0 0.00 0.00 0.00 82 1012.1
20260510083058 56 0 0.0 2.0 0.00 0.00 0.00 82 1011.9
20260510081554 57 0 0.0 2.0 0.00 0.00 0.00 81 1011.8
20260510080051 57 0 0.0 2.0 0.00 0.00 0.00 81 1011.8
20260510074601 57 0 0.0 2.0 0.00 0.00 0.00 81 1011.6
20260510073051 57 0 0.0 3.0 0.00 0.00 0.00 81 1011.6
20260510071558 57 0 0.0 2.0 0.00 0.00 0.00 81 1011.7
20260510070059 57 0 0.0 3.0 0.00 0.00 0.00 81 1011.7
20260510064551 57 0 0.0 2.0 0.00 0.00 0.00 82 1011.7
20260510063051 56 360 0.0 2.0 0.00 0.00 0.00 83 1011.7
20260510061555 57 0 0.0 2.0 0.00 0.00 0.00 82 1011.6
20260510060104 57 0 0.0 3.0 0.00 0.00 0.00 82 1011.9
20260510054558 58 0 0.0 2.0 0.00 0.00 0.00 80 1011.9
20260510053101 59 0 0.0 2.0 0.00 0.00 0.00 79 1012.0
20260510051556 59 0 0.0 2.0 0.00 0.00 0.00 78 1012.1
20260510050056 59 360 0.0 2.0 0.00 0.00 0.00 77 1012.1
20260510044554 60 360 0.0 3.0 0.00 0.00 0.00 77 1012.0
20260510043104 60 360 1.0 3.0 0.00 0.00 0.00 76 1012.0
20260510041601 59 360 0.0 3.0 0.00 0.00 0.00 77 1012.1
20260510040059 59 0 0.0 3.0 0.00 0.00 0.00 76 1012.1
20260510034555 59 0 0.0 5.0 0.00 0.00 0.00 77 1012.1
20260510033104 59 0 0.0 2.0 0.00 0.00 0.00 77 1012.1
20260510031554 59 0 0.0 3.0 0.00 0.00 0.00 77 1011.8
20260510030053 59 0 0.0 3.0 0.00 0.00 0.00 76 1011.7
20260510024557 60 0 0.0 3.0 0.00 0.00 0.00 75 1011.6
20260510023050 60 0 0.0 1.0 0.00 0.00 0.00 73 1011.5
20260510021553 61 0 0.0 3.0 0.00 0.00 0.00 73 1011.4
20260510020055 61 0 1.0 4.0 0.00 0.00 0.00 73 1011.2
20260510014550 61 0 0.0 2.0 0.00 0.00 0.00 72 1011.0
20260510013053 61 0 0.0 3.0 0.00 0.00 0.00 71 1010.7
20260510011553 62 0 0.0 1.0 0.00 0.00 0.00 69 1010.3
20260510010055 63 0 0.0 1.0 0.00 0.00 0.00 68 1010.2
20260510004600 64 0 0.0 1.0 0.00 0.00 0.00 66 1010.1
20260510003051 65 0 0.0 2.0 0.00 0.00 0.00 64 1009.9
20260510001551 66 0 0.0 2.0 0.00 0.00 0.00 63 1009.7
20260510000059 67 0 0.0 2.0 0.00 0.00 0.00 61 1009.5
20260509234551 67 15 0.0 2.0 0.00 0.00 0.00 60 1009.4
20260509233056 68 0 0.0 3.0 0.00 0.00 0.00 59 1009.5
20260509231553 68 183 1.0 3.0 0.00 0.00 0.00 57 1009.4
20260509230057 70 297 0.0 3.0 0.00 0.00 0.00 56 1009.3
20260509224557 70 0 0.0 3.0 0.00 0.00 0.00 55 1009.2
20260509223056 69 0 0.0 5.0 0.00 0.00 0.00 57 1009.2
20260509221550 70 0 1.0 5.0 0.00 0.00 0.00 56 1009.4
20260509220053 70 0 1.0 7.0 0.00 0.00 0.00 55 1009.7
20260509214610 70 288 1.0 6.0 0.00 0.00 0.00 57 1009.6
20260509213056 69 0 0.0 7.0 0.00 0.00 0.00 57 1009.7
20260509211555 69 299 1.0 4.0 0.00 0.00 0.00 58 1009.6
20260509210058 68 0 0.0 5.0 0.00 0.00 0.00 60 1009.6
20260509204554 69 32 0.0 6.0 0.00 0.00 0.00 57 1009.7
20260509203101 70 101 3.0 8.0 0.00 0.00 0.00 56 1009.7
20260509201556 68 360 2.0 6.0 0.00 0.00 0.00 58 1009.6
20260509200056 69 56 2.0 9.0 0.00 0.00 0.00 59 1009.7
20260509194555 69 27 3.0 11.0 0.00 0.00 0.00 57 1009.9
20260509193057 69 104 1.0 8.0 0.00 0.00 0.00 61 1009.8
20260509191600 68 15 0.0 8.0 0.00 0.00 0.00 61 1009.9
20260509190056 68 250 2.0 8.0 0.00 0.00 0.00 60 1010.0
20260509184600 68 0 2.0 8.0 0.00 0.00 0.00 60 1010.0
20260509183059 68 229 2.0 7.0 0.00 0.00 0.00 58 1009.8
20260509181557 67 250 2.0 6.0 0.00 0.00 0.00 60 1010.0
20260509180054 66 360 1.0 5.0 0.00 0.00 0.00 64 1010.2